Printer-friendly version

IAU Minor Planet Center

Minor Planet Center

MPEC 2007-T87 : 2007 TV24

The following Minor Planet Electronic Circular may be linked-to from your own Web pages, but must not otherwise be redistributed electronically.


Read MPEC 2007-T86 Read MPEC 2007-T88


M.P.E.C. 2007-T87                                Issued 2007 Oct. 12, 15:44 UT

     The Minor Planet Electronic Circulars contain information on unusual
         minor planets and routine data on comets.  They are published
   on behalf of Commission 20 of the International Astronomical Union by the
          Minor Planet Center, Smithsonian Astrophysical Observatory,
                          Cambridge, MA 02138, U.S.A.

             Prepared using the Tamkin Foundation Computer Network

                              MPC@CFA.HARVARD.EDU
          URL http://www.cfa.harvard.edu/iau/mpc.html  ISSN 1523-6714

                                   2007 TV24

Observations:
     K07T24V* C2007 10 11.31205 03 48 33.24 +19 34 58.6          19.1   ET087704
     K07T24V  C2007 10 11.32333 03 48 32.76 +19 34 39.5          19.8   ET087704
     K07T24V  C2007 10 11.33445 03 48 32.23 +19 34 21.6          19.8   ET087704
     K07T24V  C2007 10 11.34562 03 48 31.77 +19 34 01.8          19.7   ET087704
     K07T24V  C2007 10 11.35676 03 48 31.29 +19 33 43.9          19.5   ET087704
     K07T24V  C2007 10 12.00643 03 48 04.85 +19 15 15.8          19.9 V ET087B21
     K07T24V  C2007 10 12.01089 03 48 04.63 +19 15 08.1          19.5 V ET087B21
     K07T24V  C2007 10 12.01535 03 48 04.44 +19 15 00.4          19.6 V ET087B21
     K07T24V  C2007 10 12.02197 03 48 04.13 +19 14 49.5          19.8 V ET087B03
     K07T24V  C2007 10 12.02943 03 48 03.75 +19 14 36.8          19.7 V ET087B03
     K07T24V  C2007 10 12.10767 03 48 00.32 +19 12 24.2                 ET087204
     K07T24V  C2007 10 12.11472 03 47 59.97 +19 12 12.1                 ET087204
     K07T24V  C2007 10 12.12131 03 47 59.63 +19 12 00.0                 ET087118
     K07T24V  C2007 10 12.12172 03 47 59.68 +19 12 00.0          19.3 R ET087204
     K07T24V  C2007 10 12.12705 03 47 59.35 +19 11 50.4                 ET087118
     K07T24V  C2007 10 12.33037 03 47 51.29 +19 06 05.7          19.2 R ET087651
     K07T24V  C2007 10 12.33325 03 47 51.18 +19 06 00.6          19.5 R ET087651
     K07T24V  C2007 10 12.33469 03 47 51.09 +19 05 58.0          19.5 R ET087651
     K07T24V  C2007 10 12.43090 03 47 46.65 +19 03 13.8          20.3 V ET087691
     K07T24V  C2007 10 12.44855 03 47 45.78 +19 02 43.3          19.6 V ET087691
     K07T24V  C2007 10 12.46620 03 47 44.94 +19 02 12.6          19.6 V ET087691

Observer details:
118 Modra.  Observer S. Gajdos.  0.6-m f/5.5 reflector + CCD.
204 Schiaparelli Observatory.  Observer L. Buzzi.  0.60-m f/4.64 reflector
    + CCD.
651 Grasslands Observatory, Tucson.  Observer J. E. McGaha.  0.62-m f/5.1
    Newtonian reflector + CCD.
691 Steward Observatory, Kitt Peak.  Observer J. V. Scotti.  0.9-m f/3
    reflector + CCD.
704 Lincoln Laboratory ETS, New Mexico.  Observers M. Bezpalko, D. Torres,
    R. Kracke, G. Spitz, J. Kistler.  Measurers J. Stuart, S. Scruggs.  1.0-m
    f/2.15 reflector + CCD.
B03 Alter Satzberg, Vienna.  Observer M. Pietschnig.  0.35-m f/7
    Schmidt-Cassegrain + CCD.
B21 Gaisberg Observatory, Schaerding.  Observer R. Gierlinger.  0.6-m f/3.3
    Newtonian reflector + CCD.

Orbital elements:
2007 TV24                                                Earth MOID = 0.4878 AU
Epoch 2007 Oct. 27.0 TT = JDT 2454400.5                 MPC
M  49.63753              (2000.0)            P               Q
n   0.35367757     Peri.   99.20512     +0.64775106     +0.72378331
a   1.9803002      Node   215.10667     -0.75255873     +0.65648500
e   0.3481827      Incl.   24.42616     +0.11863353     +0.21252097
P   2.79           H   18.0           G   0.15           U   9
Residuals in seconds of arc
071011 704  0.1+  0.2-    071012 B21  0.1+  0.5-    071012 118  0.1-  0.3+
071011 704  0.2+  0.3-    071012 B03  0.3+  0.2-    071012 651  0.5-  0.3+
071011 704  0.5-  0.6+    071012 B03  0.3-  0.2-    071012 651  0.1-  0.1+
071011 704  0.1-  0.4-    071012 204  0.3+  0.3+    071012 651  0.5-  0.1-
071011 704  0.1+  0.5+    071012 204  0.1-  0.3+    071012 691  0.4+  0.2+
071012 B21  0.3+  0.3-    071012 118  0.2+  0.1+    071012 691  0.1-  0.0
071012 B21  0.0   0.4-    071012 204  0.2+  0.2+    071012 691  0.2-  0.3-

Ephemeris:
2007 TV24                a,e,i = 1.98, 0.35, 24                  q = 1.2908
Date    TT    R. A. (2000) Decl.     Delta      r     Elong.  Phase     V
2007 10 07    03 50.94   +21 33.7    0.779    1.634   133.0    26.6    19.7
2007 10 17    03 44.06   +16 50.2    0.759    1.678   145.4    19.7    19.5
2007 10 27    03 33.33   +11 49.6    0.761    1.724   158.0    12.5    19.3
2007 11 06    03 20.75   +07 01.2    0.789    1.769   167.2     7.1    19.2
2007 11 16    03 08.51   +02 55.1    0.843    1.814   164.0     8.7    19.5
2007 11 26    02 58.54   -00 09.8    0.923    1.859   153.5    13.7    20.0
2007 12 06    02 51.86   -02 11.3    1.025    1.904   142.5    18.4    20.4
2007 12 16    02 48.82   -03 16.7    1.144    1.947   132.2    22.0    20.8
2007 12 26    02 49.25   -03 38.1    1.277    1.990   122.8    24.5    21.2
2008 01 05    02 52.71   -03 27.4    1.420    2.032   114.2    26.2    21.5
2008 01 15    02 58.75   -02 54.1    1.570    2.073   106.3    27.1    21.8
2008 01 25    03 06.92   -02 06.0    1.724    2.112    98.9    27.4    22.0

Timothy B. Spahr             (C) Copyright 2007 MPC           M.P.E.C. 2007-T87

Read MPEC 2007-T86 Read MPEC 2007-T88


Our Web policy. Index to the CBAT/MPC/ICQ pages.


Valid HTML 4.01!